Flag for United Kingdom Weather past 2 weeks in Darlington, England, United Kingdom

Now
46 °F

Scattered clouds.


Feels Like: 41 °F
Forecast: 40 / 48 °F
Wind: 13 mph from Southwest

Location: Tees-Side

Current Time: Mar 29, 2015 at 11:58:24 AM

Latest Report: Mar 29, 2015 at 11:20 AM


Visibility: N/A

Pressure: 29.21 "Hg

Humidity: 71%

Dew point: 37 °F

Location of DarlingtonLocation

Historic Weather in Darlington — Graph

°F

Darlington temperature yesterday

Maximum temperature yesterday: 57 °F (at 12:20 PM)
Minimum temperature yesterday: 43 °F (at 5:50 AM)
Average temperature yesterday: 51 °F

Past Weeks' High & Low Weather Summary

 TemperatureHumidityPressure
High57 °F (Mar 28, 12:20 PM)100% (Mar 17, 5:50 AM)30.63 "Hg (Mar 17, 5:50 AM)
Low28 °F (Mar 25, 5:50 AM)41% (Mar 22, 3:50 PM)29.21 "Hg (Mar 29, 10:20 AM)
Average44 °F73%30.11 "Hg
* Reported Mar 14 9:20 AM — Mar 29 10:50 AM, Darlington, Weather by CustomWeather, © 2015

Note: Actual official high and low records may vary slightly from our data, if they occured in-between our weather recording intervals... More about our weather records

Advertising

Darlington weather history for previous 24 hours

 ConditionsComfort  
Time TempWeatherWind HumidityBarometerVisibility
10:50 AM
Sun, Mar 29
46 °FScattered clouds.12 mph71%29.21 "HgN/A
10:20 AM46 °FScattered clouds.16 mph71%29.21 "HgN/A
9:50 AM46 °FScattered clouds.15 mph71%29.24 "HgN/A
9:20 AM46 °FScattered clouds.16 mph71%29.27 "HgN/A
8:50 AM45 °FPartly sunny.21 mph76%29.30 "HgN/A
8:20 AM45 °FPassing clouds.20 mph76%29.30 "HgN/A
7:50 AM45 °FPartly sunny.14 mph76%29.33 "HgN/A
7:20 AM45 °FPassing clouds.14 mph76%29.33 "HgN/A
6:50 AM45 °FPassing clouds.16 mph76%29.36 "HgN/A
6:20 AM45 °FPassing clouds.12 mph76%29.36 "HgN/A
5:50 AM45 °FPassing clouds.16 mph76%29.36 "HgN/A
9:50 PM
Sat, Mar 28
48 °FPassing clouds.13 mph66%29.45 "HgN/A
9:20 PM48 °FPassing clouds.14 mph71%29.47 "HgN/A
8:50 PM48 °FPassing clouds.14 mph71%29.47 "HgN/A
8:20 PM48 °FPassing clouds.15 mph66%29.47 "HgN/A
7:50 PM48 °FPassing clouds.17 mph66%29.47 "HgN/A
7:20 PM48 °FPassing clouds.14 mph71%29.47 "HgN/A
6:50 PM50 °FPassing clouds.20 mph71%29.47 "HgN/A
6:20 PM52 °FPassing clouds.21 mph67%29.47 "HgN/A
5:50 PM54 °FPassing clouds.21 mph63%29.47 "HgN/A
5:20 PM55 °FPassing clouds.18 mph59%29.47 "HgN/A
4:50 PM55 °FPassing clouds.18 mph59%29.45 "HgN/A
4:20 PM57 °FPassing clouds.21 mph59%29.45 "HgN/A
3:50 PM55 °FPassing clouds.20 mph67%29.45 "HgN/A
3:20 PM55 °FScattered clouds.22 mph72%29.45 "HgN/A
2:50 PM57 °FScattered clouds.26 mph67%29.45 "HgN/A
2:20 PM57 °FPassing clouds.28 mph67%29.45 "HgN/A
1:50 PM57 °FScattered clouds.30 mph67%29.45 "HgN/A
1:20 PM57 °FScattered clouds.31 mph72%29.45 "HgN/A
12:50 PM57 °FPartly sunny.29 mph72%29.47 "HgN/A
12:20 PM57 °FPartly sunny.28 mph77%29.47 "HgN/A
11:50 AM54 °FPartly sunny.28 mph82%29.47 "HgN/A
11:20 AM54 °FBroken clouds.21 mph82%29.50 "HgN/A
Weather by CustomWeather, © 2015

See weather overviewHow to use our weather pages